QPF
0.01 0.01 0.01 0.01 0.03 0.04 0.04 0.04 0.04 0.06 0.06 0.08 0.09 0.07 0.07 0.05 0.10 0.15 0.19 0.29 0.31 0.23 0.16 0.12 0.07 0.04 0.03 0.02 0.02 0.01 0.01 0.00 0.00 0.00 0.00 0.00 0.01 0.00 0.00 0.00 0.00 0.00 0.00
0.01 0.01 0.01 0.01 0.01 0.02 0.03 0.03 0.03 0.03 0.02 0.04 0.03 0.03 0.04 0.04 0.08 0.09 0.14 0.22 0.28 0.22 0.18 0.15 0.12 0.09 0.06 0.04 0.03 0.02 0.01 0.00 0.00 0.00 0.00 0.00 0.00 0.00 0.00 0.00 0.00 0.00 0.00
0.00 0.00 0.00 0.00 0.00 0.01 0.01 0.01 0.01 0.02 0.02 0.02 0.01 0.01 0.02 0.03 0.04 0.07 0.12 0.14 0.17 0.17 0.15 0.15 0.13 0.12 0.10 0.07 0.05 0.05 0.03 0.02 0.01 0.00 0.00 0.00 0.00 0.00 0.00 0.00 0.00 0.00 0.00
0.00 0.00 0.00 0.00 0.00 0.00 0.00 0.00 0.00 0.01 0.01 0.01 0.01 0.02 0.03 0.02 0.02 0.04 0.10 0.10 0.08 0.09 0.12 0.15 0.15 0.14 0.13 0.11 0.07 0.07 0.06 0.03 0.02 0.01 0.00 0.00 0.00 0.00 0.00 0.00 0.00 0.00 0.00
0.00 0.00 0.00 0.00 0.00 0.00 0.00 0.00 0.00 0.00 0.00 0.00 0.00 0.00 0.01 0.01 0.02 0.02 0.03 0.03 0.03 0.05 0.06 0.10 0.15 0.15 0.16 0.16 0.14 0.11 0.09 0.06 0.04 0.02 0.01 0.00 0.00 0.00 0.00 0.00 0.00 0.00 0.00
0.00 0.00 0.00 0.00 0.00 0.00 0.00 0.00 0.00 0.00 0.00 0.00 0.00 0.00 0.00 0.00 0.00 0.01 0.01 0.01 0.01 0.02 0.03 0.05 0.08 0.10 0.15 0.16 0.17 0.17 0.13 0.11 0.07 0.04 0.03 0.01 0.00 0.00 0.00 0.00 0.00 0.00 0.00
0.00 0.00 0.00 0.00 0.00 0.00 0.00 0.00 0.00 0.00 0.00 0.00 0.00 0.00 0.00 0.00 0.00 0.00 0.01 0.01 0.02 0.02 0.04 0.05 0.06 0.06 0.07 0.12 0.12 0.15 0.18 0.18 0.15 0.10 0.06 0.03 0.02 0.00 0.00 0.00 0.00 0.00 0.00
0.00 0.00 0.00 0.00 0.00 0.00 0.00 0.00 0.00 0.00 0.00 0.00 0.00 0.00 0.00 0.00 0.00 0.00 0.01 0.02 0.03 0.03 0.03 0.04 0.05 0.05 0.04 0.06 0.05 0.11 0.18 0.20 0.21 0.16 0.12 0.08 0.05 0.03 0.01 0.00 0.00 0.00 0.00
0.00 0.00 0.00 0.00 0.00 0.00 0.00 0.00 0.00 0.00 0.00 0.00 0.00 0.00 0.00 0.00 0.00 0.00 0.01 0.01 0.02 0.03 0.02 0.02 0.03 0.05 0.05 0.06 0.05 0.07 0.14 0.16 0.21 0.21 0.17 0.12 0.09 0.06 0.03 0.01 0.00 0.00 0.00
0.00 0.00 0.00 0.00 0.00 0.00 0.00 0.00 0.00 0.00 0.00 0.00 0.00 0.00 0.00 0.00 0.00 0.00 0.00 0.00 0.01 0.01 0.01 0.01 0.01 0.02 0.04 0.05 0.05 0.05 0.08 0.11 0.16 0.19 0.19 0.17 0.13 0.09 0.06 0.04 0.02 0.01 0.00
0.00 0.00 0.00 0.00 0.00 0.00 0.00 0.00 0.00 0.00 0.00 0.00 0.00 0.00 0.00 0.00 0.00 0.00 0.00 0.00 0.00 0.00 0.00 0.00 0.01 0.01 0.02 0.03 0.03 0.03 0.04 0.06 0.09 0.13 0.16 0.17 0.17 0.14 0.11 0.09 0.08 0.05 0.02
0.00 0.00 0.00 0.00 0.00 0.00 0.00 0.00 0.00 0.00 0.00 0.00 0.00 0.00 0.00 0.00 0.00 0.00 0.00 0.00 0.00 0.00 0.00 0.00 0.00 0.01 0.01 0.01 0.02 0.02 0.03 0.06 0.06 0.07 0.10 0.12 0.14 0.15 0.14 0.12 0.11 0.11 0.07
0.00 0.00 0.00 0.00 0.00 0.00 0.00 0.00 0.00 0.00 0.00 0.00 0.00 0.00 0.00 0.00 0.00 0.00 0.00 0.00 0.00 0.00 0.00 0.00 0.00 0.00 0.01 0.01 0.02 0.02 0.02 0.04 0.05 0.05 0.05 0.07 0.09 0.10 0.12 0.13 0.12 0.10 0.09
0.00 0.00 0.00 0.00 0.00 0.00 0.00 0.00 0.00 0.00 0.00 0.00 0.00 0.00 0.00 0.00 0.00 0.00 0.00 0.00 0.00 0.00 0.00 0.00 0.01 0.01 0.01 0.02 0.03 0.04 0.03 0.03 0.03 0.03 0.04 0.05 0.06 0.06 0.08 0.10 0.11 0.11 0.10
0.00 0.00 0.00 0.00 0.00 0.00 0.00 0.00 0.00 0.00 0.00 0.00 0.00 0.00 0.00 0.00 0.00 0.00 0.00 0.00 0.00 0.00 0.00 0.00 0.00 0.01 0.02 0.02 0.02 0.03 0.04 0.05 0.03 0.02 0.03 0.03 0.04 0.05 0.06 0.06 0.07 0.09 0.09
0.00 0.00 0.00 0.00 0.00 0.00 0.00 0.00 0.00 0.00 0.00 0.00 0.00 0.00 0.00 0.00 0.00 0.00 0.00 0.00 0.00 0.00 0.00 0.00 0.00 0.00 0.00 0.01 0.01 0.00 0.01 0.03 0.04 0.03 0.02 0.02 0.03 0.04 0.04 0.05 0.06 0.06 0.07
0.00 0.00 0.00 0.00 0.00 0.00 0.00 0.00 0.00 0.00 0.00 0.00 0.00 0.00 0.00 0.00 0.00 0.00 0.00 0.00 0.00 0.00 0.00 0.00 0.00 0.00 0.00 0.00 0.00 0.00 0.00 0.00 0.01 0.03 0.03 0.02 0.02 0.02 0.03 0.04 0.05 0.06 0.05
0.00 0.00 0.00 0.00 0.00 0.00 0.00 0.00 0.00 0.00 0.00 0.00 0.00 0.00 0.00 0.00 0.00 0.00 0.00 0.00 0.00 0.00 0.00 0.00 0.00 0.00 0.00 0.00 0.00 0.00 0.00 0.00 0.00 0.01 0.02 0.03 0.02 0.02 0.01 0.02 0.04 0.05 0.06
0.00 0.00 0.00 0.00 0.00 0.00 0.00 0.00 0.00 0.00 0.00 0.00 0.00 0.00 0.00 0.00 0.00 0.00 0.00 0.00 0.00 0.00 0.00 0.00 0.00 0.00 0.00 0.00 0.00 0.00 0.00 0.00 0.01 0.01 0.02 0.03 0.03 0.03 0.02 0.02 0.03 0.03 0.05
0.00 0.00 0.00 0.00 0.00 0.00 0.00 0.00 0.00 0.00 0.00 0.00 0.00 0.00 0.00 0.00 0.00 0.00 0.00 0.00 0.00 0.00 0.00 0.00 0.00 0.00 0.00 0.00 0.00 0.00 0.00 0.00 0.01 0.01 0.02 0.04 0.04 0.04 0.04 0.03 0.03 0.03 0.04
0.00 0.00 0.00 0.00 0.00 0.00 0.00 0.00 0.00 0.00 0.00 0.00 0.00 0.00 0.00 0.00 0.00 0.00 0.00 0.00 0.00 0.00 0.00 0.00 0.00 0.00 0.00 0.00 0.00 0.00 0.00 0.00 0.00 0.01 0.02 0.03 0.04 0.04 0.05 0.05 0.04 0.04 0.03
0.00 0.00 0.00 0.00 0.00 0.00 0.00 0.00 0.00 0.00 0.00 0.00 0.00 0.00 0.00 0.00 0.00 0.00 0.00 0.00 0.00 0.00 0.00 0.00 0.00 0.00 0.00 0.00 0.00 0.00 0.00 0.00 0.00 0.02 0.03 0.04 0.05 0.04 0.05 0.06 0.06 0.05 0.04
0.00 0.00 0.00 0.00 0.00 0.00 0.00 0.00 0.00 0.00 0.00 0.00 0.00 0.00 0.00 0.00 0.00 0.00 0.00 0.00 0.00 0.00 0.00 0.00 0.00 0.00 0.00 0.00 0.00 0.00 0.00 0.00 0.00 0.01 0.03 0.04 0.07 0.07 0.07 0.07 0.09 0.08 0.06
0.00 0.00 0.00 0.00 0.00 0.00 0.00 0.00 0.00 0.00 0.00 0.00 0.00 0.00 0.00 0.00 0.00 0.00 0.00 0.00 0.00 0.00 0.00 0.00 0.00 0.00 0.00 0.00 0.00 0.00 0.00 0.00 0.00 0.01 0.02 0.04 0.07 0.08 0.09 0.08 0.08 0.09 0.09
0.00 0.00 0.00 0.00 0.00 0.00 0.00 0.00 0.00 0.00 0.00 0.00 0.00 0.00 0.00 0.00 0.00 0.00 0.00 0.00 0.00 0.00 0.00 0.00 0.00 0.00 0.00 0.00 0.00 0.00 0.00 0.00 0.00 0.00 0.02 0.04 0.08 0.12 0.12 0.10 0.09 0.09 0.09
0.00 0.00 0.00 0.00 0.00 0.00 0.00 0.00 0.00 0.00 0.00 0.00 0.00 0.00 0.00 0.00 0.00 0.00 0.00 0.00 0.00 0.00 0.00 0.00 0.00 0.00 0.00 0.00 0.00 0.00 0.00 0.00 0.00 0.00 0.02 0.04 0.07 0.10 0.12 0.10 0.09 0.08 0.08
MSLP
1016.95 1016.76 1016.55 1016.39 1016.30 1016.29 1016.37 1016.50 1016.64 1016.76 1016.83 1016.83 1016.78 1016.70 1016.62 1016.59 1016.62 1016.74 1016.93 1017.18 1017.46 1017.74 1018.01 1018.25 1018.47 1018.66 1018.84 1019.03 1019.25 1019.50 1019.79 1020.10 1020.44 1020.81 1021.18 1021.55 1021.91 1022.25 1022.56 1022.84 1023.10 1023.32 1023.52
1017.23 1017.05 1016.86 1016.70 1016.59 1016.57 1016.60 1016.69 1016.79 1016.88 1016.92 1016.91 1016.85 1016.76 1016.67 1016.60 1016.59 1016.65 1016.78 1016.98 1017.22 1017.49 1017.77 1018.04 1018.28 1018.51 1018.73 1018.93 1019.14 1019.36 1019.61 1019.89 1020.21 1020.56 1020.93 1021.33 1021.72 1022.11 1022.46 1022.78 1023.06 1023.29 1023.50
1017.49 1017.35 1017.20 1017.07 1016.98 1016.95 1016.97 1017.02 1017.08 1017.13 1017.14 1017.10 1017.02 1016.90 1016.77 1016.65 1016.57 1016.54 1016.59 1016.70 1016.87 1017.10 1017.35 1017.63 1017.90 1018.17 1018.41 1018.64 1018.86 1019.08 1019.31 1019.57 1019.87 1020.21 1020.59 1021.01 1021.44 1021.87 1022.26 1022.62 1022.93 1023.19 1023.41
1017.68 1017.60 1017.52 1017.45 1017.41 1017.40 1017.41 1017.44 1017.46 1017.47 1017.44 1017.38 1017.26 1017.11 1016.94 1016.76 1016.60 1016.48 1016.41 1016.41 1016.48 1016.63 1016.83 1017.08 1017.36 1017.64 1017.91 1018.17 1018.41 1018.64 1018.87 1019.13 1019.43 1019.77 1020.17 1020.61 1021.07 1021.53 1021.97 1022.36 1022.70 1023.00 1023.24
1017.79 1017.78 1017.78 1017.79 1017.82 1017.84 1017.87 1017.89 1017.89 1017.87 1017.81 1017.72 1017.58 1017.41 1017.20 1016.97 1016.74 1016.51 1016.33 1016.20 1016.15 1016.19 1016.30 1016.49 1016.74 1017.01 1017.29 1017.57 1017.83 1018.09 1018.34 1018.61 1018.92 1019.28 1019.69 1020.15 1020.63 1021.12 1021.58 1022.01 1022.38 1022.70 1022.99
1017.82 1017.88 1017.96 1018.06 1018.15 1018.23 1018.29 1018.31 1018.31 1018.27 1018.20 1018.10 1017.96 1017.78 1017.56 1017.31 1017.02 1016.72 1016.43 1016.18 1015.99 1015.90 1015.89 1015.99 1016.16 1016.40 1016.67 1016.95 1017.23 1017.50 1017.78 1018.08 1018.41 1018.78 1019.20 1019.67 1020.16 1020.65 1021.13 1021.56 1021.96 1022.31 1022.62
1017.79 1017.91 1018.06 1018.24 1018.41 1018.54 1018.63 1018.67 1018.67 1018.63 1018.57 1018.48 1018.37 1018.22 1018.02 1017.77 1017.47 1017.12 1016.75 1016.39 1016.08 1015.85 1015.71 1015.69 1015.76 1015.93 1016.15 1016.41 1016.68 1016.97 1017.26 1017.57 1017.92 1018.30 1018.72 1019.18 1019.66 1020.14 1020.61 1021.04 1021.45 1021.81 1022.16
1017.76 1017.90 1018.11 1018.35 1018.58 1018.76 1018.88 1018.95 1018.96 1018.94 1018.90 1018.85 1018.78 1018.69 1018.54 1018.34 1018.05 1017.70 1017.28 1016.85 1016.44 1016.08 1015.81 1015.66 1015.61 1015.67 1015.82 1016.03 1016.27 1016.54 1016.83 1017.15 1017.49 1017.87 1018.28 1018.71 1019.16 1019.61 1020.04 1020.45 1020.84 1021.22 1021.58
1017.73 1017.90 1018.15 1018.43 1018.69 1018.91 1019.05 1019.14 1019.16 1019.16 1019.15 1019.15 1019.15 1019.13 1019.07 1018.94 1018.71 1018.39 1017.98 1017.51 1017.02 1016.57 1016.19 1015.90 1015.73 1015.68 1015.72 1015.85 1016.03 1016.26 1016.52 1016.81 1017.13 1017.48 1017.85 1018.24 1018.64 1019.04 1019.42 1019.80 1020.16 1020.52 1020.90
1017.75 1017.93 1018.19 1018.49 1018.77 1019.00 1019.16 1019.25 1019.28 1019.30 1019.32 1019.36 1019.43 1019.49 1019.52 1019.48 1019.34 1019.07 1018.70 1018.24 1017.73 1017.22 1016.75 1016.36 1016.08 1015.91 1015.84 1015.86 1015.96 1016.11 1016.31 1016.55 1016.82 1017.11 1017.42 1017.75 1018.09 1018.42 1018.75 1019.07 1019.40 1019.75 1020.12
1017.80 1017.98 1018.24 1018.54 1018.82 1019.05 1019.20 1019.28 1019.32 1019.34 1019.38 1019.46 1019.57 1019.70 1019.81 1019.86 1019.81 1019.63 1019.33 1018.91 1018.42 1017.89 1017.38 1016.92 1016.54 1016.27 1016.09 1016.00 1016.00 1016.05 1016.16 1016.31 1016.51 1016.73 1016.97 1017.22 1017.49 1017.75 1018.02 1018.29 1018.58 1018.91 1019.28
1017.84 1018.02 1018.28 1018.57 1018.84 1019.04 1019.18 1019.24 1019.26 1019.28 1019.32 1019.41 1019.56 1019.73 1019.90 1020.02 1020.06 1019.97 1019.75 1019.40 1018.96 1018.46 1017.94 1017.45 1017.02 1016.67 1016.39 1016.20 1016.08 1016.03 1016.03 1016.08 1016.17 1016.30 1016.46 1016.64 1016.83 1017.02 1017.23 1017.46 1017.71 1018.02 1018.38
1017.82 1018.01 1018.27 1018.53 1018.77 1018.96 1019.06 1019.10 1019.10 1019.10 1019.13 1019.22 1019.37 1019.56 1019.77 1019.94 1020.04 1020.02 1019.88 1019.62 1019.25 1018.81 1018.34 1017.86 1017.41 1017.01 1016.67 1016.38 1016.16 1015.99 1015.88 1015.82 1015.80 1015.83 1015.90 1016.00 1016.12 1016.26 1016.41 1016.60 1016.83 1017.11 1017.46
1017.71 1017.90 1018.14 1018.39 1018.60 1018.75 1018.84 1018.86 1018.84 1018.82 1018.83 1018.90 1019.04 1019.22 1019.43 1019.62 1019.76 1019.80 1019.74 1019.56 1019.28 1018.92 1018.52 1018.09 1017.66 1017.24 1016.86 1016.51 1016.20 1015.93 1015.70 1015.53 1015.41 1015.34 1015.32 1015.34 1015.39 1015.47 1015.59 1015.74 1015.94 1016.21 1016.54
1017.48 1017.66 1017.88 1018.10 1018.29 1018.42 1018.49 1018.50 1018.47 1018.44 1018.44 1018.49 1018.61 1018.77 1018.96 1019.14 1019.29 1019.37 1019.36 1019.25 1019.06 1018.79 1018.47 1018.11 1017.73 1017.34 1016.95 1016.56 1016.19 1015.84 1015.52 1015.24 1015.02 1014.86 1014.75 1014.69 1014.68 1014.72 1014.79 1014.91 1015.09 1015.33 1015.65
1017.12 1017.29 1017.49 1017.68 1017.85 1017.97 1018.03 1018.05 1018.03 1018.01 1018.00 1018.04 1018.13 1018.27 1018.42 1018.58 1018.72 1018.80 1018.82 1018.77 1018.65 1018.47 1018.24 1017.96 1017.65 1017.31 1016.94 1016.54 1016.14 1015.74 1015.35 1014.99 1014.68 1014.43 1014.24 1014.11 1014.04 1014.02 1014.06 1014.14 1014.29 1014.51 1014.81
1016.67 1016.81 1016.98 1017.15 1017.31 1017.43 1017.50 1017.54 1017.54 1017.55 1017.56 1017.60 1017.68 1017.78 1017.91 1018.03 1018.14 1018.20 1018.23 1018.21 1018.14 1018.02 1017.87 1017.67 1017.44 1017.16 1016.83 1016.47 1016.07 1015.64 1015.22 1014.80 1014.43 1014.11 1013.84 1013.64 1013.51 1013.43 1013.41 1013.46 1013.57 1013.75 1014.02
1016.16 1016.28 1016.43 1016.58 1016.73 1016.85 1016.95 1017.01 1017.06 1017.10 1017.15 1017.20 1017.28 1017.36 1017.45 1017.54 1017.60 1017.64 1017.65 1017.62 1017.58 1017.50 1017.41 1017.28 1017.12 1016.91 1016.65 1016.34 1015.97 1015.56 1015.13 1014.69 1014.27 1013.90 1013.57 1013.30 1013.09 1012.95 1012.87 1012.86 1012.92 1013.06 1013.29
1015.66 1015.75 1015.88 1016.01 1016.16 1016.29 1016.41 1016.51 1016.61 1016.69 1016.77 1016.85 1016.93 1017.00 1017.07 1017.11 1017.13 1017.12 1017.09 1017.05 1017.00 1016.94 1016.88 1016.81 1016.71 1016.58 1016.39 1016.15 1015.84 1015.47 1015.07 1014.64 1014.20 1013.79 1013.41 1013.08 1012.80 1012.59 1012.44 1012.36 1012.36 1012.45 1012.63
1015.17 1015.26 1015.37 1015.50 1015.64 1015.78 1015.92 1016.05 1016.17 1016.29 1016.40 1016.51 1016.60 1016.67 1016.71 1016.72 1016.69 1016.64 1016.57 1016.49 1016.41 1016.35 1016.31 1016.27 1016.22 1016.15 1016.05 1015.88 1015.65 1015.36 1015.00 1014.60 1014.18 1013.75 1013.34 1012.95 1012.61 1012.32 1012.09 1011.94 1011.87 1011.90 1012.04
1014.71 1014.80 1014.92 1015.04 1015.18 1015.32 1015.46 1015.60 1015.74 1015.87 1016.01 1016.12 1016.22 1016.29 1016.32 1016.30 1016.24 1016.15 1016.03 1015.91 1015.80 1015.72 1015.67 1015.65 1015.65 1015.64 1015.60 1015.52 1015.38 1015.17 1014.89 1014.54 1014.15 1013.73 1013.30 1012.88 1012.48 1012.12 1011.82 1011.60 1011.46 1011.43 1011.52
1014.25 1014.37 1014.49 1014.61 1014.74 1014.86 1014.99 1015.12 1015.25 1015.38 1015.51 1015.64 1015.74 1015.81 1015.84 1015.81 1015.73 1015.60 1015.46 1015.30 1015.16 1015.05 1014.99 1014.98 1014.99 1015.03 1015.06 1015.06 1015.00 1014.88 1014.68 1014.41 1014.07 1013.68 1013.25 1012.81 1012.37 1011.96 1011.60 1011.32 1011.12 1011.04 1011.07
1013.75 1013.90 1014.04 1014.16 1014.27 1014.37 1014.46 1014.55 1014.65 1014.76 1014.88 1015.00 1015.11 1015.18 1015.22 1015.19 1015.11 1014.98 1014.82 1014.64 1014.48 1014.36 1014.28 1014.26 1014.29 1014.35 1014.43 1014.50 1014.52 1014.48 1014.37 1014.17 1013.89 1013.54 1013.14 1012.70 1012.25 1011.81 1011.42 1011.09 1010.85 1010.71 1010.69
1013.20 1013.38 1013.52 1013.63 1013.71 1013.77 1013.81 1013.85 1013.91 1013.98 1014.08 1014.19 1014.30 1014.40 1014.45 1014.45 1014.40 1014.29 1014.13 1013.96 1013.79 1013.65 1013.56 1013.53 1013.56 1013.64 1013.75 1013.86 1013.94 1013.97 1013.93 1013.81 1013.59 1013.29 1012.93 1012.51 1012.08 1011.64 1011.24 1010.89 1010.62 1010.45 1010.39
1012.57 1012.76 1012.90 1012.99 1013.03 1013.04 1013.03 1013.01 1013.02 1013.06 1013.14 1013.24 1013.37 1013.49 1013.58 1013.63 1013.62 1013.55 1013.42 1013.27 1013.11 1012.97 1012.88 1012.84 1012.86 1012.94 1013.05 1013.18 1013.30 1013.37 1013.38 1013.32 1013.16 1012.92 1012.60 1012.23 1011.83 1011.42 1011.03 1010.69 1010.42 1010.23 1010.14
1011.89 1012.07 1012.19 1012.24 1012.23 1012.18 1012.11 1012.05 1012.02 1012.03 1012.10 1012.21 1012.36 1012.52 1012.66 1012.77 1012.82 1012.81 1012.73 1012.62 1012.48 1012.35 1012.25 1012.20 1012.20 1012.26 1012.36 1012.49 1012.61 1012.70 1012.74 1012.71 1012.60 1012.41 1012.15 1011.84 1011.49 1011.13 1010.78 1010.47 1010.21 1010.02 1009.91
Thickness
5730 5730 5730 5730 5729 5729 5730 5729 5729 5729 5728 5728 5727 5728 5728 5728 5727 5727 5728 5728 5727 5726 5726 5726 5726 5726 5726 5726 5725 5725 5725 5725 5725 5725 5725 5725 5724 5723 5722 5721 5720 5719 5718
5727 5726 5726 5726 5726 5726 5726 5726 5726 5725 5725 5725 5724 5724 5724 5724 5724 5724 5725 5726 5725 5724 5724 5723 5723 5724 5724 5724 5724 5724 5724 5724 5724 5723 5723 5724 5723 5723 5722 5721 5720 5719 5718
5723 5723 5722 5722 5722 5722 5722 5722 5721 5721 5721 5720 5720 5721 5721 5721 5721 5722 5722 5723 5723 5722 5722 5722 5722 5722 5722 5722 5722 5722 5723 5722 5722 5722 5722 5722 5722 5722 5722 5721 5720 5719 5718
5720 5719 5718 5717 5717 5718 5717 5717 5716 5715 5714 5714 5715 5716 5718 5718 5719 5719 5720 5721 5721 5721 5722 5722 5722 5721 5721 5721 5721 5721 5721 5721 5721 5721 5721 5721 5721 5721 5721 5721 5720 5719 5718
5717 5716 5714 5713 5713 5712 5712 5712 5710 5709 5708 5709 5710 5712 5713 5715 5716 5717 5718 5719 5719 5720 5720 5721 5721 5720 5719 5719 5719 5719 5719 5720 5720 5720 5720 5720 5719 5719 5720 5719 5719 5719 5718
5714 5712 5710 5709 5708 5707 5706 5705 5704 5704 5704 5704 5706 5707 5708 5711 5712 5713 5715 5717 5717 5718 5718 5719 5719 5719 5719 5718 5718 5717 5717 5718 5718 5718 5718 5719 5719 5718 5718 5718 5718 5718 5718
5711 5709 5706 5705 5704 5702 5700 5700 5700 5698 5698 5699 5698 5698 5702 5705 5707 5709 5711 5712 5714 5715 5716 5716 5716 5716 5717 5717 5716 5716 5715 5715 5716 5716 5717 5717 5718 5718 5717 5717 5717 5717 5717
5708 5706 5704 5701 5700 5698 5696 5695 5694 5692 5692 5693 5690 5687 5686 5691 5698 5703 5705 5706 5708 5710 5711 5712 5713 5713 5714 5714 5714 5714 5714 5713 5714 5714 5715 5715 5716 5717 5717 5716 5716 5716 5716
5706 5704 5702 5699 5697 5695 5692 5691 5690 5688 5685 5686 5686 5682 5678 5676 5682 5692 5696 5698 5700 5702 5704 5706 5707 5708 5709 5710 5710 5711 5712 5712 5711 5712 5712 5713 5714 5715 5716 5716 5716 5716 5716
5705 5703 5700 5697 5695 5692 5690 5688 5686 5684 5682 5679 5680 5680 5678 5677 5674 5675 5684 5689 5692 5694 5696 5698 5700 5702 5703 5704 5705 5706 5707 5708 5709 5709 5709 5711 5712 5713 5714 5714 5715 5715 5715
5703 5701 5698 5695 5693 5690 5688 5686 5684 5681 5679 5676 5675 5674 5674 5672 5671 5668 5668 5674 5680 5685 5688 5690 5692 5694 5696 5697 5699 5701 5702 5704 5705 5706 5707 5708 5709 5711 5712 5713 5714 5714 5714
5701 5699 5696 5693 5691 5688 5685 5683 5681 5679 5676 5674 5672 5670 5668 5666 5664 5663 5661 5662 5666 5673 5679 5682 5684 5687 5689 5691 5693 5694 5696 5698 5700 5701 5703 5705 5706 5708 5710 5711 5712 5713 5713
5698 5697 5695 5692 5689 5686 5684 5681 5678 5675 5673 5670 5668 5666 5664 5662 5661 5659 5656 5655 5657 5663 5668 5673 5676 5678 5681 5683 5685 5687 5690 5692 5694 5696 5698 5700 5702 5704 5706 5708 5710 5711 5712
5699 5697 5694 5691 5688 5685 5682 5678 5675 5672 5670 5667 5665 5663 5660 5659 5657 5655 5652 5650 5648 5650 5654 5659 5666 5670 5672 5674 5677 5679 5681 5684 5686 5689 5691 5694 5696 5699 5701 5704 5706 5709 5711
5699 5696 5693 5689 5686 5683 5680 5676 5672 5669 5666 5663 5661 5658 5655 5654 5653 5651 5648 5646 5642 5639 5641 5647 5652 5659 5662 5665 5667 5670 5672 5675 5678 5682 5685 5687 5690 5693 5696 5699 5702 5705 5708
5698 5695 5691 5688 5684 5681 5677 5673 5669 5666 5663 5660 5657 5654 5651 5649 5647 5645 5643 5640 5638 5635 5633 5637 5641 5647 5651 5655 5657 5660 5663 5666 5670 5673 5677 5680 5683 5687 5690 5694 5698 5701 5705
5697 5693 5690 5686 5682 5679 5675 5671 5666 5663 5659 5656 5653 5649 5647 5645 5641 5639 5636 5633 5631 5629 5627 5629 5632 5636 5640 5643 5647 5651 5654 5657 5661 5665 5669 5673 5677 5680 5684 5688 5692 5696 5700
5696 5692 5688 5684 5680 5677 5673 5668 5664 5661 5656 5652 5648 5645 5642 5639 5635 5632 5629 5626 5624 5622 5620 5620 5622 5624 5628 5632 5635 5639 5644 5648 5652 5657 5661 5666 5670 5674 5678 5682 5686 5691 5694
5694 5690 5686 5682 5678 5675 5671 5666 5662 5658 5653 5649 5645 5640 5637 5633 5629 5625 5622 5619 5616 5616 5613 5611 5612 5613 5616 5620 5623 5628 5633 5637 5642 5647 5652 5658 5663 5667 5671 5676 5680 5685 5689
5692 5688 5684 5680 5676 5672 5668 5663 5659 5654 5649 5645 5641 5636 5632 5627 5623 5619 5616 5612 5609 5606 5604 5602 5602 5602 5604 5608 5610 5613 5618 5624 5629 5637 5642 5648 5653 5658 5664 5669 5674 5679 5683
5691 5686 5682 5677 5673 5669 5665 5660 5655 5650 5644 5640 5635 5631 5627 5623 5619 5615 5611 5607 5603 5599 5596 5593 5593 5592 5593 5595 5597 5601 5605 5609 5616 5623 5629 5636 5641 5648 5653 5660 5666 5671 5676
5687 5682 5678 5673 5669 5666 5662 5657 5651 5646 5640 5634 5629 5625 5621 5617 5614 5610 5607 5604 5599 5594 5589 5586 5585 5584 5586 5586 5588 5591 5593 5596 5601 5610 5614 5621 5628 5635 5643 5650 5657 5663 5669
5683 5678 5674 5669 5665 5661 5657 5652 5647 5641 5634 5629 5624 5618 5615 5612 5608 5603 5600 5597 5594 5592 5589 5584 5581 5581 5580 5581 5581 5582 5584 5586 5591 5597 5601 5609 5616 5624 5633 5641 5648 5655 5661
5679 5674 5669 5665 5660 5656 5652 5647 5642 5636 5629 5624 5619 5614 5608 5604 5600 5596 5592 5589 5587 5585 5583 5581 5579 5579 5578 5577 5576 5577 5578 5580 5584 5588 5591 5597 5606 5614 5624 5632 5640 5647 5654
5674 5670 5666 5660 5654 5651 5647 5642 5636 5629 5623 5618 5614 5608 5603 5598 5595 5590 5585 5582 5580 5578 5578 5577 5576 5575 5574 5572 5571 5569 5569 5569 5574 5579 5583 5588 5597 5604 5614 5624 5632 5638 5645
5670 5665 5660 5655 5650 5646 5642 5636 5630 5623 5617 5613 5607 5602 5598 5593 5589 5584 5579 5576 5573 5573 5571 5570 5569 5568 5567 5566 5566 5564 5564 5564 5566 5570 5577 5580 5588 5593 5603 5615 5622 5628 5635